Time,TemperatureF,DewpointF,PressureIn,WindDirection,WindDirectionDegrees,WindSpeedMPH,WindSpeedGustMPH,Humidity,HourlyPrecipIn,Conditions,Clouds,dailyrainin,SolarRadiationWatts/m^2,SoftwareType,DateUTC
2013-06-06 00:02:00,65.0,65.0,-100.00,SE,132,6.0,12.0,100,0.00,,,1.41,0.000000,,2013-06-06 05:02:00,
2013-06-06 00:32:00,65.0,65.0,-100.00,SE,131,6.0,11.0,100,0.00,,,1.41,0.000000,,2013-06-06 05:32:00,
2013-06-06 00:42:00,65.0,65.0,-100.00,SE,131,6.0,11.0,100,0.00,,,1.41,0.000000,,2013-06-06 05:42:00,
2013-06-06 00:52:00,65.0,65.0,-100.00,SE,131,6.0,11.0,100,0.00,,,1.41,0.000000,,2013-06-06 05:52:00,
2013-06-06 01:02:00,65.0,65.0,-100.00,SE,131,6.0,11.0,100,0.00,,,1.41,0.000000,,2013-06-06 06:02:00,
2013-06-06 01:33:00,65.0,65.0,-100.00,ESE,123,6.0,12.0,100,0.00,,,1.41,0.000000,,2013-06-06 06:33:00,
2013-06-06 01:42:00,65.0,65.0,-100.00,ESE,123,6.0,12.0,100,0.00,,,1.41,0.000000,,2013-06-06 06:42:00,
2013-06-06 01:52:00,65.0,65.0,-100.00,ESE,123,6.0,12.0,100,0.00,,,1.41,0.000000,,2013-06-06 06:52:00,
2013-06-06 02:02:00,65.0,65.0,-100.00,ESE,123,6.0,12.0,100,0.00,,,1.41,0.000000,,2013-06-06 07:02:00,
2013-06-06 02:33:00,65.0,65.0,-100.00,SSE,148,7.0,15.0,100,0.00,,,1.41,0.000000,,2013-06-06 07:33:00,
2013-06-06 02:42:00,65.0,65.0,-100.00,SSE,148,7.0,15.0,100,0.00,,,1.41,0.000000,,2013-06-06 07:42:00,
2013-06-06 02:52:00,65.0,65.0,-100.00,SSE,148,7.0,15.0,100,0.00,,,1.41,0.000000,,2013-06-06 07:52:00,
2013-06-06 03:02:00,65.0,65.0,-100.00,SSE,148,7.0,15.0,100,0.00,,,1.41,0.000000,,2013-06-06 08:02:00,
2013-06-06 03:32:00,65.0,65.0,-100.00,SSE,158,4.0,13.0,100,0.00,,,1.41,0.000000,,2013-06-06 08:32:00,
2013-06-06 03:42:00,65.0,65.0,-100.00,SSE,158,4.0,13.0,100,0.00,,,1.41,0.000000,,2013-06-06 08:42:00,
2013-06-06 03:52:00,65.0,65.0,-100.00,SSE,158,4.0,13.0,100,0.00,,,1.41,0.000000,,2013-06-06 08:52:00,
2013-06-06 04:02:00,65.0,65.0,-100.00,SSE,158,4.0,13.0,100,0.00,,,1.41,0.000000,,2013-06-06 09:02:00,
2013-06-06 04:33:00,65.0,65.0,-100.00,South,183,1.0,9.0,100,0.00,,,1.41,0.000000,,2013-06-06 09:33:00,
2013-06-06 04:43:00,65.0,65.0,-100.00,South,183,1.0,9.0,100,0.00,,,1.41,0.000000,,2013-06-06 09:43:00,
2013-06-06 04:53:00,65.0,65.0,-100.00,South,183,1.0,9.0,100,0.00,,,1.41,0.000000,,2013-06-06 09:53:00,
2013-06-06 05:03:00,65.0,65.0,-100.00,South,183,1.0,9.0,100,0.00,,,1.41,0.000000,,2013-06-06 10:03:00,
2013-06-06 05:33:00,65.0,65.0,-100.00,SE,139,1.0,7.0,100,0.00,,,1.41,0.000000,,2013-06-06 10:33:00,
2013-06-06 05:42:00,65.0,65.0,-100.00,SE,139,1.0,7.0,100,0.00,,,1.41,0.000000,,2013-06-06 10:42:00,
2013-06-06 05:53:00,65.0,65.0,-100.00,SE,139,1.0,7.0,100,0.00,,,1.41,0.000000,,2013-06-06 10:53:00,
2013-06-06 06:02:00,65.0,65.0,-100.00,SE,139,1.0,7.0,100,0.00,,,1.41,0.000000,,2013-06-06 11:02:00,
2013-06-06 06:32:00,65.0,65.0,-100.00,SSE,166,4.0,10.0,100,0.00,,,1.41,3.000000,,2013-06-06 11:32:00,
2013-06-06 06:42:00,65.0,65.0,-100.00,SSE,166,4.0,10.0,100,0.00,,,1.41,3.000000,,2013-06-06 11:42:00,
2013-06-06 06:52:00,65.0,65.0,-100.00,SSE,166,4.0,10.0,100,0.00,,,1.41,3.000000,,2013-06-06 11:52:00,
2013-06-06 07:03:00,65.0,65.0,-100.00,SSE,166,4.0,10.0,100,0.00,,,1.41,3.000000,,2013-06-06 12:03:00,
2013-06-06 07:33:00,65.0,65.0,-100.00,South,187,1.0,9.0,100,0.00,,,1.38,27.000000,,2013-06-06 12:33:00,
2013-06-06 07:43:00,65.0,65.0,-100.00,South,187,1.0,9.0,100,0.00,,,1.38,27.000000,,2013-06-06 12:43:00,
2013-06-06 07:53:00,65.0,65.0,-100.00,South,187,1.0,9.0,100,0.00,,,1.38,27.000000,,2013-06-06 12:53:00,
2013-06-06 08:03:00,65.0,65.0,-100.00,South,187,1.0,9.0,100,0.00,,,1.38,27.000000,,2013-06-06 13:03:00,
2013-06-06 08:33:00,66.0,66.0,-100.00,SSE,162,1.0,7.0,100,0.00,,,1.38,98.000000,,2013-06-06 13:33:00,
2013-06-06 08:43:00,66.0,66.0,-100.00,SSE,162,1.0,7.0,100,0.00,,,1.38,98.000000,,2013-06-06 13:43:00,
2013-06-06 08:53:00,66.0,66.0,-100.00,SSE,162,1.0,7.0,100,0.00,,,1.38,98.000000,,2013-06-06 13:53:00,
2013-06-06 09:03:00,66.0,66.0,-100.00,SSE,162,1.0,7.0,100,0.00,,,1.38,98.000000,,2013-06-06 14:03:00,
2013-06-06 09:33:00,66.0,66.0,-100.00,SE,145,0.0,10.0,100,0.00,,,1.38,168.000000,,2013-06-06 14:33:00,
2013-06-06 09:43:00,66.0,66.0,-100.00,SE,145,0.0,10.0,100,0.00,,,1.38,168.000000,,2013-06-06 14:43:00,
2013-06-06 09:53:00,66.0,66.0,-100.00,SE,145,0.0,10.0,100,0.00,,,1.38,168.000000,,2013-06-06 14:53:00,
2013-06-06 10:03:00,66.0,66.0,-100.00,SE,145,0.0,10.0,100,0.00,,,1.38,168.000000,,2013-06-06 15:03:00,
2013-06-06 11:34:00,72.0,68.0,-100.00,SE,135,1.0,8.0,88,-99.99,,,1.38,511.000000,,2013-06-06 16:34:00,
2013-06-06 11:44:00,72.0,68.0,-100.00,SE,135,1.0,8.0,88,-99.99,,,1.38,511.000000,,2013-06-06 16:44:00,
2013-06-06 11:53:00,72.0,68.0,-100.00,SE,135,1.0,8.0,88,-99.99,,,1.38,511.000000,,2013-06-06 16:53:00,
2013-06-06 12:03:00,72.0,68.0,-100.00,SE,135,1.0,8.0,88,-99.99,,,1.38,511.000000,,2013-06-06 17:03:00,
2013-06-06 12:33:00,75.0,69.0,-100.00,SSE,157,2.0,8.0,82,0.00,,,1.38,687.000000,,2013-06-06 17:33:00,
2013-06-06 12:43:00,75.0,69.0,-100.00,SSE,157,2.0,8.0,82,0.00,,,1.38,687.000000,,2013-06-06 17:43:00,
2013-06-06 12:53:00,75.0,69.0,-100.00,SSE,157,2.0,8.0,82,0.00,,,1.38,687.000000,,2013-06-06 17:53:00,
2013-06-06 13:03:00,75.0,69.0,-100.00,SSE,157,2.0,8.0,82,0.00,,,1.38,687.000000,,2013-06-06 18:03:00,
2013-06-06 13:33:00,76.0,69.0,-100.00,SSE,164,3.0,10.0,78,0.00,,,1.38,733.000000,,2013-06-06 18:33:00,
2013-06-06 13:43:00,76.0,69.0,-100.00,SSE,164,3.0,10.0,78,0.00,,,1.38,733.000000,,2013-06-06 18:43:00,
2013-06-06 13:53:00,76.0,69.0,-100.00,SSE,164,3.0,10.0,78,0.00,,,1.38,733.000000,,2013-06-06 18:53:00,
2013-06-06 14:03:00,76.0,69.0,-100.00,SSE,164,3.0,10.0,78,0.00,,,1.38,733.000000,,2013-06-06 19:03:00,
2013-06-06 14:43:00,77.0,69.0,-100.00,South,171,0.0,8.0,77,0.00,,,0.12,590.000000,,2013-06-06 19:43:00,
2013-06-06 14:53:00,77.0,69.0,-100.00,South,171,0.0,8.0,77,0.00,,,0.12,590.000000,,2013-06-06 19:53:00,
2013-06-06 15:03:00,77.0,69.0,-100.00,South,171,0.0,8.0,77,0.00,,,0.12,590.000000,,2013-06-06 20:03:00,
2013-06-06 15:33:00,77.0,69.0,-100.00,SSE,159,2.0,8.0,76,0.00,,,0.07,407.000000,,2013-06-06 20:33:00,
2013-06-06 15:43:00,77.0,69.0,-100.00,SSE,159,2.0,8.0,76,0.00,,,0.07,407.000000,,2013-06-06 20:43:00,
2013-06-06 15:53:00,77.0,69.0,-100.00,SSE,159,2.0,8.0,76,0.00,,,0.07,407.000000,,2013-06-06 20:53:00,
2013-06-06 16:03:00,77.0,69.0,-100.00,SSE,159,2.0,8.0,76,0.00,,,0.07,407.000000,,2013-06-06 21:03:00,
2013-06-06 16:33:00,78.0,69.0,-100.00,SSW,213,1.0,11.0,73,0.00,,,0.07,419.000000,,2013-06-06 21:33:00,
2013-06-06 16:44:00,78.0,69.0,-100.00,SSW,213,1.0,11.0,73,0.00,,,0.07,419.000000,,2013-06-06 21:44:00,
2013-06-06 16:53:00,78.0,69.0,-100.00,SSW,213,1.0,11.0,73,0.00,,,0.07,419.000000,,2013-06-06 21:53:00,
2013-06-06 17:03:00,78.0,69.0,-100.00,SSW,213,1.0,11.0,73,0.00,,,0.07,419.000000,,2013-06-06 22:03:00,
2013-06-06 17:33:00,76.0,69.0,-100.00,WNW,285,0.0,10.0,78,0.00,,,0.07,213.000000,,2013-06-06 22:33:00,
2013-06-06 17:43:00,76.0,69.0,-100.00,WNW,285,0.0,10.0,78,0.00,,,0.07,213.000000,,2013-06-06 22:43:00,
2013-06-06 17:53:00,76.0,69.0,-100.00,WNW,285,0.0,10.0,78,0.00,,,0.07,213.000000,,2013-06-06 22:53:00,
2013-06-06 18:03:00,76.0,69.0,-100.00,WNW,285,0.0,10.0,78,0.00,,,0.07,213.000000,,2013-06-06 23:03:00,
2013-06-06 18:33:00,75.0,68.0,-100.00,West,277,0.0,8.0,78,0.00,,,0.07,171.000000,,2013-06-06 23:33:00,
2013-06-06 18:43:00,75.0,68.0,-100.00,West,277,0.0,8.0,78,0.00,,,0.07,171.000000,,2013-06-06 23:43:00,
2013-06-06 18:52:00,75.0,68.0,-100.00,West,277,0.0,8.0,78,0.00,,,0.07,171.000000,,2013-06-06 23:52:00,
2013-06-06 19:02:00,75.0,68.0,-100.00,West,277,0.0,8.0,78,0.00,,,0.07,171.000000,,2013-06-07 00:02:00,
2013-06-06 19:32:00,73.0,66.0,-100.00,West,281,0.0,3.0,79,0.00,,,0.00,91.000000,,2013-06-07 00:32:00,
2013-06-06 19:43:00,73.0,66.0,-100.00,West,281,0.0,3.0,79,0.00,,,0.00,91.000000,,2013-06-07 00:43:00,
2013-06-06 19:52:00,73.0,66.0,-100.00,West,281,0.0,3.0,79,0.00,,,0.00,91.000000,,2013-06-07 00:52:00,
2013-06-06 20:03:00,73.0,66.0,-100.00,West,281,0.0,3.0,79,0.00,,,0.00,91.000000,,2013-06-07 01:03:00,
2013-06-06 20:33:00,69.0,68.0,-100.00,NNW,339,0.0,2.0,98,0.00,,,0.00,19.000000,,2013-06-07 01:33:00,
2013-06-06 20:42:00,69.0,68.0,-100.00,NNW,339,0.0,2.0,98,0.00,,,0.00,19.000000,,2013-06-07 01:42:00,
2013-06-06 20:53:00,69.0,68.0,-100.00,NNW,339,0.0,2.0,98,0.00,,,0.00,19.000000,,2013-06-07 01:53:00,
2013-06-06 21:02:00,69.0,68.0,-100.00,NNW,339,0.0,2.0,98,0.00,,,0.00,19.000000,,2013-06-07 02:02:00,
2013-06-06 21:32:00,68.0,68.0,-100.00,NNW,336,0.0,6.0,100,0.00,,,0.00,0.000000,,2013-06-07 02:32:00,
2013-06-06 21:42:00,68.0,68.0,-100.00,NNW,336,0.0,6.0,100,0.00,,,0.00,0.000000,,2013-06-07 02:42:00,
2013-06-06 21:52:00,68.0,68.0,-100.00,NNW,336,0.0,6.0,100,0.00,,,0.00,0.000000,,2013-06-07 02:52:00,
2013-06-06 22:02:00,68.0,68.0,-100.00,NNW,336,0.0,6.0,100,0.00,,,0.00,0.000000,,2013-06-07 03:02:00,
2013-06-06 22:33:00,67.0,67.0,-100.00,North,6,0.0,6.0,100,0.00,,,0.00,0.000000,,2013-06-07 03:33:00,
2013-06-06 22:44:00,67.0,67.0,-100.00,North,6,0.0,6.0,100,0.00,,,0.00,0.000000,,2013-06-07 03:44:00,
2013-06-06 22:53:00,67.0,67.0,-100.00,North,6,0.0,6.0,100,0.00,,,0.00,0.000000,,2013-06-07 03:53:00,
2013-06-06 23:03:00,67.0,67.0,-100.00,North,6,0.0,6.0,100,0.00,,,0.00,0.000000,,2013-06-07 04:03:00,
2013-06-06 23:33:00,66.0,66.0,-100.00,NNW,341,1.0,4.0,100,0.00,,,0.00,0.000000,,2013-06-07 04:33:00,
2013-06-06 23:42:00,66.0,66.0,-100.00,NNW,341,1.0,4.0,100,0.00,,,0.00,0.000000,,2013-06-07 04:42:00,
2013-06-06 23:53:00,66.0,66.0,-100.00,NNW,341,1.0,4.0,100,0.00,,,0.00,0.000000,,2013-06-07 04:53:00,